Location: Palomar Mountain Lodge
(33.3110°N, 116.8495°W)
Time: 14:08:12
(UTC-07:00)

USA 308 - Visible Passes

Search period start: 16 March 2026 00:00
Search period end: 26 March 2026 00:00
Orbit: 493 x 493 km, 54.0° (Epoch: 14 March)

Date Brightness Start Highest point End Pass type
(mag) Time Alt. Az. Time Alt. Az. Time Alt. Az.
19 Mar 2.2 19:25:43 10° SSE 19:26:36 15° ESE 19:28:02 10° ENE visible
19 Mar 5.0 20:48:15 10° WNW 20:48:33 12° NW 20:48:33 12° NW visible
20 Mar -0.3 19:20:12 10° SW 19:21:09 70° SE 19:23:19 10° NE visible
